CW9120 Weather Reports


time (UTC)temp
F
wind
direction
speed
knots
gust
knots
rain 1hr
in
rain 24hr
in
rain mn
in
humidity
%
barometer
mb
20260506033055 67 184 0.9 4.3 0.00 0.00 0.00 57 1009.8
20260506031555 68 232 0.0 9.6 0.00 0.00 0.00 55 1009.7
20260506030053 69 187 1.7 7.0 0.00 0.00 0.00 53 1009.7
20260506024550 69 69 0.9 7.0 0.00 0.00 0.00 53 1009.6
20260506023105 70 166 0.9 9.6 0.00 0.00 0.00 52 1009.4
20260506021549 71 127 3.5 8.7 0.00 0.00 0.00 51 1009.4
20260506020053 71 106 2.6 7.8 0.00 0.00 0.00 50 1009.4
20260506014551 72 181 0.9 7.8 0.00 0.00 0.00 51 1009.3
20260506013055 73 174 0.9 6.1 0.00 0.00 0.00 49 1009.3
20260506011549 73 113 0.0 7.8 0.00 0.00 0.00 50 1009.5
20260506010049 72 167 1.7 7.8 0.00 0.00 0.00 50 1009.4
20260506004546 73 117 0.9 7.8 0.00 0.00 0.00 48 1009.4
20260506003044 73 147 1.7 8.7 0.00 0.00 0.00 48 1009.4
20260506001553 73 80 1.7 7.8 0.00 0.00 0.00 47 1009.6
20260506000042 73 234 1.7 7.0 0.00 0.00 0.00 48 1009.7
20260505234548 73 133 1.7 7.0 0.00 0.00 0.00 46 1009.9
20260505233052 74 97 2.6 9.6 0.00 0.00 0.00 45 1009.9
20260505231548 75 117 2.6 7.0 0.00 0.00 0.00 42 1010.1
20260505230110 76 331 3.5 10.4 0.00 0.00 0.00 42 1010.1
20260505224544 75 144 2.6 7.8 0.00 0.00 0.00 43 1010.0
20260505223045 75 138 2.6 7.0 0.00 0.00 0.00 43 1010.1
20260505221546 75 142 2.6 7.8 0.00 0.00 0.00 43 1010.3
20260505220050 74 320 3.5 8.7 0.00 0.00 0.00 43 1010.4
20260505214536 73 80 1.7 7.8 0.00 0.00 0.00 44 1010.6
20260505213035 73 140 1.7 9.6 0.00 0.00 0.00 44 1010.6
20260505211532 74 126 0.9 7.0 0.00 0.00 0.00 43 1010.7
20260505210034 74 165 2.6 7.0 0.00 0.00 0.00 42 1010.7
20260505204528 74 169 0.9 7.8 0.00 0.00 0.00 42 1010.8
20260505203026 74 225 0.0 5.2 0.00 0.00 0.00 46 1010.9
20260505201522 72 222 1.7 6.1 0.00 0.00 0.00 47 1011.0
20260505200032 72 121 0.0 0.9 0.00 0.00 0.00 48 1011.2
20260505194519 71 121 0.0 5.2 0.00 0.00 0.00 48 1011.2
20260505193017 71 173 0.0 6.1 0.00 0.00 0.00 48 1011.3
20260505191524 71 152 0.0 3.5 0.00 0.00 0.00 45 1011.4
20260505190012 72 223 0.0 4.3 0.00 0.00 0.00 48 1011.5
20260505184510 71 209 0.0 3.5 0.00 0.00 0.00 46 1011.6
20260505183006 70 101 0.0 0.0 0.00 0.00 0.00 49 1011.6
20260505181502 68 103 0.0 0.9 0.00 0.00 0.00 48 1011.7
20260505180059 67 103 0.0 0.9 0.00 0.00 0.00 48 1011.8
20260505174606 67 341 0.0 0.0 0.00 0.00 0.00 49 1012.0
20260505173056 67 315 0.0 0.0 0.00 0.00 0.00 51 1012.0
20260505171552 67 348 0.0 0.9 0.00 0.00 0.00 55 1012.0
20260505170047 66 348 0.0 0.0 0.00 0.00 0.00 57 1012.0
20260505164549 64 348 0.0 0.9 0.00 0.00 0.00 58 1012.1
20260505163041 63 343 0.0 0.9 0.00 0.00 0.00 58 1012.2
20260505161542 62 346 0.0 0.0 0.00 0.00 0.00 60 1012.4
20260505153027 59 292 0.0 0.9 0.00 0.00 0.00 63 1012.7
20260505151522 57 292 0.0 0.0 0.00 0.00 0.00 65 1012.6
20260505130115 42 292 0.0 0.0 0.00 0.00 0.00 65 1011.8
20260505124510 42 292 0.0 0.0 0.00 0.00 0.00 65 1011.8
20260505123004 43 292 0.0 0.0 0.00 0.00 0.00 65 1011.9
20260505121514 43 292 0.0 0.0 0.00 0.00 0.00 66 1011.8
20260505120003 43 292 0.0 0.0 0.00 0.00 0.00 67 1011.8
20260505114558 43 292 0.0 0.0 0.00 0.00 0.00 68 1011.7
20260505113116 43 292 0.0 0.0 0.00 0.00 0.00 69 1011.5
20260505111557 43 292 0.0 0.0 0.00 0.00 0.00 70 1011.6
20260505110107 44 292 0.0 0.0 0.00 0.00 0.00 71 1011.4
20260505101559 45 292 0.0 0.0 0.00 0.00 0.00 72 1011.1
20260505100055 46 292 0.0 0.0 0.00 0.00 0.00 73 1011.0
20260505094556 46 292 0.0 0.0 0.00 0.00 0.00 74 1011.1
20260505093055 47 292 0.0 0.0 0.00 0.00 0.00 74 1011.1
20260505091548 47 292 0.0 0.0 0.00 0.00 0.00 74 1011.1
20260505090048 48 292 0.0 0.0 0.00 0.00 0.00 74 1011.1
20260505084554 49 292 0.0 0.0 0.00 0.00 0.00 75 1011.0
20260505083059 49 292 0.0 0.0 0.00 0.00 0.00 75 1010.8
20260505081557 50 292 0.0 0.0 0.00 0.00 0.00 75 1010.7
20260505080051 50 292 0.0 0.0 0.00 0.00 0.00 75 1010.5
20260505074554 51 292 0.0 0.0 0.00 0.00 0.00 75 1010.4
20260505073054 52 292 0.0 0.0 0.00 0.00 0.00 75 1010.4
20260505071553 52 292 0.0 0.0 0.00 0.00 0.00 74 1010.2
20260505070053 53 292 0.0 0.0 0.00 0.00 0.00 74 1010.1
20260505064549 54 292 0.0 0.0 0.00 0.00 0.00 74 1009.9
20260505063047 54 292 0.0 0.0 0.00 0.00 0.00 74 1009.9
20260505061549 55 292 0.0 0.0 0.00 0.00 0.00 73 1009.8
20260505060048 56 292 0.0 0.0 0.00 0.00 0.00 72 1009.7
20260505054554 57 292 0.0 0.0 0.00 0.00 0.00 72 1009.6
20260505053045 58 292 0.0 0.0 0.00 0.00 0.00 70 1009.4
20260505051545 59 292 0.0 0.0 0.00 0.00 0.00 69 1009.4
20260505041542 65 292 0.0 0.0 0.00 0.00 0.00 59 1008.8
20260505040042 66 292 0.0 0.0 0.00 0.00 0.00 56 1008.8
20260505034547 68 292 0.0 0.0 0.00 0.00 0.00 54 1008.6